Temperature
24 21 21 22 23 23 22 21 20 20 21 18 16 16 16 17 17 16 16 16 16 15 15 15 14 14 14 13 13 13 13 13 14 14 14 14 15 15 15 15 15 15 16 16
21 21 23 24 23 21 20 20 19 20 21 18 16 16 16 17 16 16 16 16 15 15 15 14 14 14 13 13 13 13 13 13 13 13 13 13 14 14 14 15 15 15 15 16
21 22 24 22 21 21 20 20 20 20 20 18 16 16 16 16 16 16 16 15 15 15 14 14 14 13 13 13 12 12 12 13 13 13 13 13 14 14 14 14 14 15 15 15
21 22 22 21 20 20 20 20 21 20 18 17 17 14 15 15 15 15 15 15 15 15 14 14 14 13 13 13 12 12 12 12 12 13 13 13 13 13 13 14 14 14 15 15
21 21 20 20 21 21 20 21 20 20 18 17 16 15 14 15 15 14 15 15 15 15 14 14 14 13 13 13 13 12 12 12 12 12 13 13 13 13 13 13 14 14 15 15
21 21 21 20 21 21 21 19 18 16 15 16 17 15 14 13 14 14 15 15 15 15 14 14 14 14 13 13 13 13 12 12 12 12 12 12 12 13 13 13 13 14 14 14
20 20 21 21 20 19 18 16 15 16 15 15 17 16 14 14 15 15 15 15 15 15 15 14 14 14 14 13 13 13 13 12 12 12 12 12 12 12 13 13 13 13 14 14
19 18 20 20 19 19 19 16 15 16 16 15 16 16 14 16 16 16 15 15 15 15 15 15 14 14 14 13 13 13 12 12 12 12 12 12 12 12 12 13 13 13 13 13
18 18 20 20 20 19 19 17 16 15 16 16 15 15 15 16 15 15 15 15 15 15 15 15 15 14 14 14 13 13 12 12 12 12 12 12 12 12 12 12 13 13 13 13
18 18 19 20 19 19 19 18 14 16 16 16 16 15 14 14 14 14 14 15 15 15 15 15 15 15 14 14 13 13 13 12 12 12 12 12 12 12 12 12 12 12 13 13
19 17 19 19 19 19 18 18 15 14 14 15 15 15 15 14 14 14 14 15 15 15 15 15 15 15 15 14 14 13 13 12 12 12 11 11 11 11 12 12 12 12 12 12
18 15 16 18 18 19 19 18 15 15 15 14 13 13 16 15 15 15 15 16 16 16 16 15 15 15 15 14 14 13 13 12 12 12 11 11 11 11 11 11 12 12 12 12
18 16 16 18 17 18 18 19 17 13 13 14 14 14 15 15 15 16 16 16 16 16 16 16 16 15 15 15 14 14 13 13 12 12 11 11 11 11 11 11 11 11 12 12
17 16 17 18 17 17 18 18 18 15 13 14 15 16 16 14 14 15 16 16 16 16 16 16 16 16 15 15 14 14 13 13 12 12 11 11 11 11 11 11 11 11 11 11
16 18 19 18 19 19 19 18 17 16 15 15 15 16 16 15 15 16 16 16 16 16 16 16 16 16 15 15 15 14 14 13 12 12 12 11 11 11 11 10 10 11 11 11
16 19 19 19 20 19 20 19 18 17 17 16 16 16 16 17 17 16 17 16 16 16 16 16 16 16 16 15 15 14 14 13 13 12 12 11 11 11 10 10 10 10 10 10
17 17 18 17 19 20 19 19 18 18 17 17 17 17 16 15 16 17 17 17 17 17 17 16 16 16 16 15 15 14 14 13 13 12 12 11 11 11 10 10 10 10 10 10
17 16 15 16 18 20 19 20 20 19 19 18 18 17 16 18 19 18 18 18 17 17 17 16 16 16 16 15 15 15 14 13 13 12 12 11 11 10 10 10 10 10 9 9
16 17 16 15 17 18 20 21 21 20 20 19 18 17 18 19 18 17 18 18 18 17 17 17 16 16 16 15 15 15 14 13 13 12 12 11 11 10 10 10 10 9 9 9
15 14 15 15 18 19 20 21 22 21 20 20 20 18 18 17 14 16 19 18 18 17 17 17 16 16 16 15 15 15 14 13 13 12 11 11 11 10 10 10 10 9 9 9
17 16 15 15 16 17 18 21 21 19 19 21 22 21 19 18 18 21 20 19 18 18 17 17 16 16 16 15 15 15 14 13 13 12 12 11 11 11 10 10 10 10 9 9
15 15 15 14 16 18 20 20 19 19 22 22 22 22 21 21 21 20 20 19 18 18 17 17 17 16 16 16 15 15 14 14 13 12 12 11 11 11 10 10 10 10 10 10
15 15 14 15 17 20 22 22 24 23 23 23 22 22 22 21 21 20 20 19 19 18 17 17 17 17 16 16 16 15 15 14 13 13 12 12 11 11 11 10 10 10 10 10
17 17 16 17 18 21 23 23 23 23 23 23 22 22 22 22 21 20 19 19 19 18 18 17 17 17 17 16 16 16 15 15 14 13 13 12 12 11 11 11 10 10 10 10
19 19 18 19 18 22 23 24 24 24 23 23 22 22 22 22 21 20 20 19 19 18 18 18 17 17 17 17 16 16 16 15 14 14 13 13 12 12 11 11 11 10 10 10
13 14 16 17 18 19 21 21 22 23 23 23 22 22 22 21 21 21 20 20 19 19 18 18 18 17 17 17 17 16 16 15 15 14 14 13 13 12 12 11 11 11 10 10
Wind_Speed
5 7 4 1 3 4 2 3 3 3 5 5 8 7 5 3 6 6 5 5 6 5 5 6 7 8 8 9 9 9 9 9 8 6 5 5 5 6 5 5 6 7 8 8
7 3 1 2 5 8 8 7 4 2 3 5 7 4 3 3 4 5 5 5 4 5 6 7 7 8 8 8 9 9 9 9 8 6 5 4 5 5 5 4 5 6 7 7
8 2 2 7 7 7 6 5 3 2 1 5 7 2 2 1 3 4 4 4 4 4 4 6 6 7 7 8 9 9 9 9 9 8 6 5 4 4 4 5 4 5 6 6
6 3 7 7 5 4 1 1 1 2 3 3 6 4 6 4 2 2 2 3 2 3 3 4 6 7 7 7 8 8 8 8 9 8 7 6 5 5 5 5 5 6 6 5
3 3 6 4 1 1 3 2 1 0 1 1 1 4 5 4 3 2 2 2 0 1 2 4 6 6 7 7 7 7 8 8 8 8 8 7 6 5 5 5 6 6 6 5
4 3 3 1 2 1 1 5 6 5 5 2 5 5 6 5 6 4 3 2 1 1 3 4 6 6 6 6 7 7 8 8 8 8 8 7 8 8 8 7 7 6 5 5
4 4 3 3 4 5 6 6 5 5 4 5 2 3 6 5 6 7 6 4 2 1 3 5 7 7 7 7 7 7 7 7 8 8 8 8 8 7 7 7 6 6 5 4
4 3 3 2 2 1 0 6 6 3 4 5 3 1 5 4 5 7 6 4 2 1 3 5 7 6 6 7 6 6 6 7 8 8 8 8 8 6 5 6 6 6 4 4
7 4 3 1 1 2 2 2 5 6 1 2 3 3 4 2 4 5 5 4 2 3 4 5 6 6 6 6 5 5 5 6 7 8 7 7 8 7 8 8 6 6 6 6
8 4 4 2 3 3 1 3 5 3 1 3 4 4 5 8 8 7 6 6 5 4 5 6 6 6 5 4 4 3 3 4 5 7 7 6 7 7 8 7 9 8 9 8
5 6 1 1 1 2 2 2 4 3 4 3 4 7 5 9 9 9 8 7 7 6 6 7 7 6 5 4 3 2 3 4 5 6 6 6 7 7 8 8 8 8 8 8
3 6 2 2 4 1 3 4 5 3 1 3 3 7 3 8 8 9 9 8 7 7 6 7 7 6 4 4 3 3 2 2 3 4 5 6 6 7 7 8 8 8 8 8
4 6 3 4 5 2 1 3 5 5 3 2 2 7 2 5 7 8 8 9 7 7 7 6 6 5 5 4 4 4 3 2 2 3 5 5 6 6 6 6 7 7 7 7
4 4 6 6 8 6 5 5 5 6 3 3 6 7 5 8 9 9 9 9 8 7 7 6 5 5 5 5 4 4 3 2 0 2 3 4 5 5 5 5 6 6 6 7
5 2 3 7 8 6 7 7 9 7 8 8 8 7 9 12 13 11 10 9 8 7 7 6 5 5 5 4 4 4 3 2 1 2 2 3 3 4 5 5 5 5 6 6
3 1 2 4 6 7 5 8 9 9 7 8 7 8 8 6 8 9 10 10 9 9 8 7 5 4 4 5 5 4 4 3 2 2 1 2 3 4 5 4 4 5 5 5
2 2 1 4 4 1 6 8 8 7 7 9 9 8 4 6 9 12 12 11 10 9 8 7 4 4 4 5 4 5 4 3 3 2 1 1 3 4 4 4 4 4 5 5
5 4 3 1 4 3 7 5 5 6 6 8 7 7 11 10 11 10 11 11 10 9 8 6 4 3 3 3 3 4 3 3 3 2 1 1 2 3 3 4 4 4 3 4
5 6 3 2 2 7 7 4 1 1 5 5 8 8 10 5 4 4 9 10 10 9 8 6 5 3 3 2 1 3 3 3 3 3 2 2 2 2 2 3 4 3 3 4
6 6 5 3 0 4 6 3 1 2 5 6 6 9 9 9 4 7 9 10 10 9 7 6 4 3 2 2 3 6 5 4 4 4 3 3 3 2 0 2 3 3 3 4
2 3 3 3 4 7 7 2 3 1 6 5 4 8 11 11 10 6 7 10 10 9 8 7 5 4 4 3 5 6 6 6 6 5 4 3 3 3 2 2 3 3 3 4
8 6 5 5 3 7 5 5 5 9 5 4 3 6 11 11 8 6 7 10 10 9 8 8 6 5 5 5 7 7 7 7 6 6 5 4 4 3 1 1 2 3 4 4
8 9 7 8 8 8 7 10 8 6 5 4 3 6 9 8 8 9 9 10 10 10 9 7 7 6 5 6 8 8 8 7 7 6 5 5 4 3 2 1 0 2 3 3
4 5 5 4 7 6 7 8 8 7 7 6 5 5 8 9 10 10 10 10 10 10 9 8 8 7 7 7 8 9 8 8 8 7 7 5 5 4 3 2 2 1 0 1
4 1 1 4 7 7 6 5 5 5 7 8 6 5 8 10 10 11 10 11 11 10 9 8 9 9 9 8 9 9 8 8 8 7 7 6 6 5 4 3 3 3 3 3
5 3 2 5 6 3 4 9 8 5 6 7 6 5 5 8 10 11 11 11 11 11 10 9 10 10 10 9 9 9 9 9 8 6 6 5 5 5 5 4 3 5 5 6
Wind_Direction
44 65 72 101 139 134 106 83 106 146 142 118 137 154 176 134 106 98 80 60 43 23 4 10 4 356 353 350 348 344 343 338 338 333 327 318 312 305 302 291 283 274 264 254
52 62 310 26 63 72 70 77 73 46 122 116 136 150 177 163 144 136 114 80 52 25 8 359 355 352 348 342 343 343 342 337 335 326 306 282 283 284 283 290 299 291 276 263
126 205 23 73 58 70 66 100 146 202 20 93 111 86 199 196 121 110 98 87 60 42 10 348 345 342 340 340 340 343 338 338 336 333 326 323 317 312 322 318 309 300 293 274
92 35 73 74 60 81 147 210 146 136 114 228 161 193 232 204 161 118 97 81 57 19 3 342 336 332 331 328 331 333 335 337 337 339 345 342 338 324 307 306 301 303 298 287
77 59 70 73 69 138 221 259 310 57 136 314 195 156 251 184 197 208 175 150 122 355 359 337 325 317 316 320 327 330 333 336 339 345 347 344 338 321 311 316 319 321 315 304
81 65 94 147 285 272 11 22 24 49 68 322 237 170 239 213 202 185 188 194 212 337 336 320 315 317 312 317 328 334 337 333 336 342 346 349 344 339 339 340 337 332 324 319
54 14 2 19 6 10 60 64 30 10 7 264 261 150 240 221 185 170 175 194 214 273 317 313 311 314 315 320 325 334 339 334 335 340 343 340 339 341 340 335 334 337 334 327
139 274 299 19 123 219 60 132 140 189 244 286 353 261 259 215 170 160 168 175 183 261 293 301 299 302 307 313 318 328 336 334 338 342 338 339 342 343 342 338 337 338 329 322
158 218 275 280 24 113 70 121 173 152 275 301 295 301 301 205 170 174 181 174 186 253 280 289 298 302 302 306 307 313 327 333 340 345 342 344 349 352 351 351 355 354 351 3
135 162 244 224 14 339 186 148 74 85 14 311 295 250 238 212 206 200 195 196 212 249 277 291 295 293 289 288 295 318 326 330 337 348 350 353 353 356 356 2 8 11 13 19
118 128 154 42 261 257 27 58 85 116 153 167 284 271 229 197 192 192 202 207 215 239 263 278 285 284 284 288 294 303 323 340 345 351 353 359 359 2 9 13 12 14 18 24
84 112 106 285 299 270 154 151 133 135 265 178 208 270 262 178 180 182 198 211 223 240 260 269 277 284 288 288 283 279 303 332 334 351 7 4 2 6 13 13 12 18 22 20
88 106 85 341 329 323 268 200 152 135 130 176 219 271 266 197 194 199 201 214 229 250 267 272 282 287 281 270 262 264 281 293 329 13 19 10 6 8 10 10 13 19 22 20
109 107 158 193 218 200 202 210 179 132 159 245 236 251 227 223 218 218 217 220 229 248 258 262 276 281 275 266 251 248 259 255 250 45 33 17 1 4 8 12 17 17 18 21
109 113 223 230 222 191 201 199 193 186 192 204 237 238 240 219 212 211 212 220 232 244 250 252 255 268 274 273 257 242 239 231 177 93 45 11 2 10 16 19 16 14 13 17
100 139 340 298 253 215 243 237 210 215 213 222 241 263 253 202 184 198 208 213 221 231 241 244 250 271 283 270 250 234 226 219 177 132 79 21 28 26 20 16 16 12 2 356
97 127 50 306 327 76 277 250 214 214 210 195 217 236 178 166 192 201 204 207 212 221 227 230 239 262 276 265 235 218 211 191 160 148 128 64 55 40 21 18 17 1 348 348
127 114 111 351 20 265 259 264 204 213 237 209 210 205 182 196 204 205 198 198 207 211 208 214 223 253 269 266 228 199 174 154 148 144 135 114 84 54 22 14 357 338 330 336
128 124 94 80 329 288 295 288 197 229 288 233 212 210 200 179 145 243 217 197 197 199 198 203 208 208 232 257 204 149 137 142 147 158 163 155 137 88 20 353 332 322 328 329
72 89 105 99 313 266 266 281 94 76 292 278 209 202 181 140 168 249 223 200 196 191 187 190 186 182 218 231 135 128 144 154 173 189 188 176 168 155 291 314 314 318 323 324
63 66 123 170 238 267 258 249 68 58 258 275 217 195 175 184 205 223 197 188 188 187 192 184 173 190 223 193 142 141 166 190 201 193 180 177 191 207 238 294 317 330 349 3
171 164 188 159 203 268 237 157 188 223 241 266 240 201 195 212 219 212 187 181 181 186 191 186 185 213 226 189 161 168 196 209 202 192 189 201 217 232 207 300 347 4 20 28
190 187 182 184 214 242 227 213 228 199 220 249 237 228 202 200 199 192 187 184 187 190 196 197 197 214 223 198 181 189 211 203 198 199 209 219 224 231 218 185 89 23 23 29
267 172 151 228 265 263 260 251 256 231 239 254 239 220 188 196 196 194 193 193 196 200 203 203 202 213 227 214 204 206 205 194 193 205 219 219 214 221 224 206 177 150 345 349
317 64 139 263 286 316 342 326 287 260 263 271 260 221 203 198 199 198 199 201 203 206 207 200 203 213 225 220 217 216 204 189 195 208 216 215 209 204 206 209 210 206 221 210
354 355 245 246 280 263 316 353 358 342 302 281 268 262 232 204 207 204 207 208 206 208 207 205 209 215 222 217 219 218 204 193 192 204 214 212 205 202 200 206 235 255 245 249
Height
1539 1545 1553 1550 1547 1549 1551 1556 1560 1558 1555 1560 1567 1570 1569 1568 1567 1567 1566 1566 1565 1564 1562 1559 1556 1552 1548 1543 1538 1534 1530 1526 1523 1520 1517 1515 1514 1513 1512 1512 1511 1511 1511 1511
1548 1552 1547 1545 1546 1549 1552 1559 1562 1558 1554 1560 1569 1571 1569 1568 1568 1567 1566 1565 1565 1563 1561 1558 1555 1551 1546 1542 1537 1533 1529 1525 1521 1518 1515 1512 1510 1508 1508 1507 1506 1506 1506 1506
1550 1551 1545 1547 1550 1553 1558 1560 1561 1561 1559 1562 1570 1576 1573 1570 1569 1568 1567 1566 1564 1563 1561 1558 1554 1550 1546 1542 1537 1533 1528 1524 1521 1517 1514 1510 1508 1506 1504 1503 1502 1502 1502 1502
1549 1548 1548 1551 1554 1555 1561 1555 1556 1558 1567 1573 1570 1586 1576 1571 1570 1568 1567 1566 1564 1562 1560 1557 1554 1550 1546 1542 1538 1533 1529 1525 1521 1517 1513 1509 1506 1503 1501 1500 1498 1498 1497 1497
1552 1551 1552 1555 1555 1554 1556 1553 1555 1558 1564 1571 1570 1580 1579 1571 1571 1569 1567 1565 1564 1562 1560 1557 1554 1550 1546 1542 1538 1534 1530 1525 1521 1517 1513 1509 1506 1503 1500 1498 1496 1495 1494 1493
1552 1551 1552 1554 1552 1552 1552 1556 1559 1565 1572 1581 1570 1577 1578 1573 1568 1567 1566 1565 1563 1561 1559 1557 1554 1550 1547 1543 1539 1535 1530 1526 1522 1518 1514 1510 1507 1503 1500 1497 1495 1493 1491 1490
1558 1556 1554 1553 1555 1555 1557 1571 1583 1583 1590 1584 1567 1571 1573 1564 1562 1563 1564 1563 1562 1561 1559 1556 1553 1550 1546 1543 1539 1535 1531 1527 1523 1519 1516 1512 1508 1504 1501 1498 1495 1492 1490 1489
1567 1570 1557 1555 1557 1560 1559 1569 1586 1591 1591 1583 1569 1573 1570 1561 1561 1561 1562 1562 1561 1560 1558 1555 1553 1550 1546 1543 1539 1536 1532 1528 1525 1521 1517 1514 1510 1506 1502 1499 1496 1493 1491 1489
1567 1568 1557 1555 1555 1556 1560 1566 1568 1580 1579 1583 1578 1573 1566 1562 1562 1562 1562 1561 1560 1559 1557 1555 1552 1549 1546 1543 1539 1536 1533 1529 1526 1522 1519 1515 1512 1508 1504 1501 1498 1494 1491 1489
1555 1566 1559 1556 1556 1556 1557 1561 1572 1577 1583 1589 1578 1575 1574 1564 1562 1561 1560 1560 1559 1558 1556 1554 1551 1548 1546 1543 1540 1536 1533 1530 1527 1523 1520 1516 1513 1510 1506 1503 1499 1496 1493 1491
1549 1563 1563 1560 1562 1561 1561 1562 1569 1579 1582 1590 1590 1579 1557 1557 1557 1558 1558 1558 1557 1556 1554 1553 1550 1548 1545 1543 1540 1537 1533 1530 1527 1524 1521 1517 1514 1511 1508 1505 1501 1499 1496 1493
1550 1563 1571 1564 1559 1557 1558 1561 1569 1579 1580 1583 1589 1580 1552 1552 1553 1555 1556 1556 1555 1554 1553 1551 1549 1547 1545 1542 1539 1537 1534 1531 1528 1525 1521 1518 1515 1512 1509 1506 1503 1500 1497 1494
1550 1562 1575 1571 1569 1561 1559 1558 1562 1572 1579 1581 1585 1574 1553 1552 1553 1553 1553 1554 1553 1553 1551 1550 1548 1546 1544 1541 1539 1536 1534 1531 1528 1525 1522 1519 1516 1513 1510 1507 1504 1501 1498 1495
1549 1559 1568 1571 1568 1559 1559 1558 1558 1567 1578 1577 1571 1561 1553 1552 1551 1551 1551 1551 1551 1551 1550 1549 1547 1545 1543 1540 1538 1536 1533 1531 1528 1526 1522 1519 1516 1514 1511 1508 1505 1502 1499 1496
1549 1556 1554 1554 1550 1550 1551 1554 1556 1560 1564 1568 1560 1554 1547 1544 1544 1546 1548 1548 1549 1548 1548 1547 1546 1544 1542 1539 1537 1535 1533 1531 1528 1526 1523 1520 1517 1514 1511 1508 1505 1502 1499 1496
1549 1553 1553 1552 1547 1548 1549 1548 1551 1553 1552 1553 1551 1548 1537 1537 1540 1543 1544 1545 1546 1546 1546 1545 1544 1543 1541 1538 1536 1534 1533 1531 1528 1526 1523 1520 1517 1514 1512 1509 1506 1503 1500 1497
1551 1554 1558 1562 1552 1550 1555 1544 1544 1544 1542 1543 1547 1542 1536 1537 1538 1539 1540 1541 1542 1543 1543 1543 1543 1541 1540 1538 1536 1534 1532 1530 1528 1525 1523 1520 1518 1515 1512 1509 1506 1504 1501 1498
1550 1555 1563 1564 1559 1563 1548 1533 1533 1536 1534 1533 1533 1532 1532 1532 1533 1535 1537 1538 1539 1540 1541 1541 1541 1540 1539 1537 1535 1533 1531 1529 1528 1525 1523 1520 1518 1515 1512 1509 1507 1504 1502 1499
1545 1552 1562 1568 1567 1560 1542 1533 1532 1535 1534 1529 1529 1529 1530 1531 1534 1534 1534 1535 1536 1537 1538 1539 1539 1538 1537 1536 1534 1532 1530 1529 1527 1525 1522 1520 1518 1515 1512 1510 1507 1505 1502 1500
1547 1551 1562 1567 1564 1562 1545 1532 1530 1534 1537 1526 1525 1526 1528 1531 1538 1532 1530 1531 1533 1535 1536 1537 1537 1537 1536 1535 1533 1531 1530 1528 1527 1524 1522 1520 1518 1515 1513 1510 1508 1505 1503 1500
1554 1557 1563 1566 1566 1557 1536 1531 1533 1545 1540 1525 1523 1523 1525 1526 1526 1526 1527 1528 1530 1532 1533 1534 1535 1535 1534 1533 1532 1530 1529 1528 1526 1524 1522 1520 1518 1516 1513 1511 1508 1505 1503 1500
1553 1559 1562 1566 1566 1556 1530 1531 1534 1532 1524 1523 1522 1522 1521 1521 1522 1524 1524 1525 1527 1529 1531 1532 1532 1532 1532 1531 1530 1529 1528 1527 1525 1523 1522 1520 1518 1516 1514 1511 1508 1506 1503 1500
1544 1543 1546 1549 1545 1531 1526 1525 1524 1523 1523 1522 1521 1520 1520 1520 1520 1521 1522 1523 1525 1527 1528 1529 1529 1530 1530 1529 1528 1527 1526 1525 1524 1522 1521 1520 1518 1516 1514 1512 1509 1506 1503 1500
1533 1532 1535 1536 1530 1525 1524 1522 1522 1522 1521 1521 1520 1519 1518 1517 1517 1518 1519 1521 1522 1523 1525 1526 1526 1527 1527 1526 1526 1525 1524 1523 1522 1521 1520 1518 1517 1516 1514 1512 1510 1507 1504 1501
1532 1530 1532 1532 1526 1523 1521 1521 1520 1519 1519 1519 1518 1517 1516 1516 1515 1516 1516 1517 1519 1520 1521 1522 1522 1523 1523 1523 1523 1522 1522 1521 1520 1519 1518 1517 1516 1514 1513 1512 1510 1508 1505 1502
1536 1536 1535 1533 1527 1526 1524 1522 1520 1519 1518 1517 1516 1515 1515 1514 1513 1513 1513 1514 1515 1516 1517 1518 1518 1519 1519 1519 1519 1519 1519 1518 1517 1516 1515 1514 1514 1513 1512 1511 1509 1508 1506 1503